Regional Weather Roundup
Issued by NWS Cleveland, OH

Home | Current Version | Previous Version | Graphics & Text | Print | Product List | Glossary On
Versions: 1 2 3 4 5 6 7 8 9 10 11 12 13 14 15 16 17 18 19 20 21 22 23 24 25 26 27 28 29 30 31 32 33 34 35 36 37 38 39 40 41 42 43 44 45 46 47 48 49 50
000
ASUS41 KCLE 300702
RWRCLE
OHIO REGIONAL WEATHER ROUNDUP
NATIONAL WEATHER SERVICE CLEVELAND, OH
300 AM EDT THU OCT 30 2014

NOTE: "FAIR" INDICATES FEW OR NO CLOUDS BELOW 12,000 FEET WITH NO
SIGNIFICANT WEATHER AND/OR OBSTRUCTIONS TO VISIBILITY.

OHZ001>008-015>018-024>027-034-035-043-044-300800-
   NORTHWEST OHIO

CITY           SKY/WX    TMP DP  RH WIND       PRES   REMARKS
DEFIANCE       CLOUDY    41  37  86 CALM      30.12S
FINDLAY        CLOUDY    44  37  76 W8        30.11R
TOLEDO EXPRESS CLOUDY    42  37  82 W7        30.11R
TOLEDO EXEC    CLOUDY    43  37  79 W5        30.11R
LIMA           CLOUDY    44  36  73 W6        30.12R
$$

OHZ009>014-019>023-028>033-038-089-300800-
   NORTHEAST OHIO

CITY           SKY/WX    TMP DP  RH WIND       PRES   REMARKS
CLE-HOPKINS    MOCLDY    45  39  79 W7        30.09S
CLE-LAKEFRONT  PTCLDY   N/A N/A N/A W10       30.06S
CUY CO. ARPT   NOT AVBL
LORAIN-ELYRIA  MOCLDY    40  37  89 W6        30.09R
ASHTABULA      CLOUDY    43  41  93 SW3       30.05S
AKRON-CANTON   CLOUDY    43  38  82 W6        30.07R
WOOSTER        CLOUDY    43  36  76 NW5       30.08S
MANSFIELD      CLEAR     38  36  92 W5        30.08S
YOUNGSTOWN     CLOUDY    43  39  86 W6        30.05S
$$

OHZ042-051>053-060>062-070>072-077>081-300800-
  SOUTHWEST OHIO

CITY           SKY/WX    TMP DP  RH WIND       PRES   REMARKS
CINC-COVINGTON CLOUDY    46  34  62 NW5       30.13S
CINC-LUNKEN    CLOUDY    46  35  65 NW3       30.15R
HAMILTON       CLOUDY    46  36  68 NW7       30.15R
DAYTON         CLOUDY    44  36  73 NW7       30.13S
WRIGHT-PAT AFB CLOUDY    44  35  69 NW5       30.13R
DAYTON GENERAL CLOUDY    45  35  68 NW7       30.12S
WILMINGTON     CLOUDY    43  34  70 NW7       30.12R
$$

OHZ036-037-039>041-045>050-054>059-063>069-073>076-082>088-300800-
  CENTRAL AND SOUTHEAST OHIO

CITY           SKY/WX    TMP DP  RH WIND       PRES   REMARKS
COLUMBUS       CLOUDY    44  34  67 NW7       30.10S
OSU AIRPORT    CLOUDY    44  35  70 NW6       30.11R
BOLTON FIELD   CLOUDY    43  37  79 MISG      30.11S
RICKENBACK AFB NOT AVBL
NEWARK         CLEAR     40  33  76 NW5       30.10R
MARION         CLOUDY    42  36  79 NW6       30.10S
LANCASTER      CLOUDY    45  35  68 NW5       30.11R
ZANESVILLE     CLEAR     36  32  85 W3        30.09S
NEW PHILLY     NOT AVBL
$$



USA.gov is the U.S. government's official web portal to all federal, state and local government web resources and services.